Weather History for OTBD - March, 2013

Change the Weather History Date:

Wednesday, March 13, 2013

  Actual Average Record
Temperature  
Mean Temperature 74 °F -  
Max Temperature 85 °F 84 °F 87 °F (2004)
Min Temperature 64 °F 65 °F 59 °F (1998)
Cooling Degree Days 10    
Growing Degree Days 24 (Base 50)    
Moisture  
Dew Point 45 °F    
Average Humidity 38    
Maximum Humidity 64    
Minimum Humidity 12    
Precipitation  
Precipitation 0.00 in 0.02 in - ()
Sea Level Pressure  
Sea Level Pressure 30.00 in    
Wind  
Wind Speed 9 mph ()    
Max Wind Speed 18 mph    
Max Gust Speed 23 mph    
Visibility 6.2 miles    
Events      
Averages and records for this station are not official NWS values.
T = Trace of Precipitation, MM = Missing Value Source: Averaged Metar Reports

Daily Weather History Graph

Daily Weather History Graph

Search for Another Location

Airport or City:

Trip Planner

Search our weather history database for the weather conditions in past years. The results will help you decide how hot, cold, wet, or windy it might be!

Date:

Astronomy

Mar. 13, 2013 Rise Set
Actual Time 5:45 AM AST 5:41 PM AST
Civil Twilight 5:22 AM AST 6:04 PM AST
Nautical Twilight 4:55 AM AST 6:31 PM AST
Astronomical Twilight 4:29 AM AST 6:57 PM AST
Moon 6:24 AM AST (3/13) 7:17 PM AST (3/13)
Length of Visible Light 12h 42m
Length of Day
11h 56m
Waxing Crescent, 3% of the Moon is Illuminated
Mar 13
Waxing Crescent
Mar 19
First Quarter
Mar 27
Full
Apr 3
Last Quarter
Apr 10
New

Hourly Weather History & Observations

Time (AST) Temp. Dew Point Humidity Pressure Visibility Wind Dir Wind Speed Gust Speed Precip Events Conditions
12:00 AM 68.0 °F 48.2 °F 49% 30.01 in - NW 10.4 mph - N/A   Clear
12:30 AM 68.0 °F 46.4 °F 46% 30.01 in - NW 8.1 mph - N/A   Clear
1:00 AM 68.0 °F 48.2 °F 49% 30.01 in - WNW 6.9 mph - N/A   Clear
1:30 AM 68.0 °F 50.0 °F 52% 30.01 in - Variable 3.5 mph - N/A   Clear
2:00 AM 66.2 °F 50.0 °F 56% 30.01 in - Variable 5.8 mph - N/A   Clear
2:30 AM 66.2 °F 50.0 °F 56% 30.01 in - WSW 4.6 mph - N/A   Clear
3:00 AM 66 °F 50 °F 47% 30.01 in 6 mi West 4.6 mph - -  
3:00 AM 66.2 °F 50.0 °F 56% 30.01 in - West 4.6 mph - N/A   Clear
3:30 AM 64.4 °F 50.0 °F 59% 29.98 in - WSW 4.6 mph - N/A   Clear
4:00 AM 64.4 °F 50.0 °F 59% 29.98 in - WSW 3.5 mph - N/A   Clear
5:00 AM 64.4 °F 50.0 °F 59% 30.01 in - WSW 4.6 mph - N/A   Clear
6:00 AM 64.4 °F 51.8 °F 64% 30.04 in - Variable 4.6 mph - N/A   Clear
6:30 AM 64.4 °F 51.8 °F 64% 30.04 in - West 8.1 mph - N/A   Clear
7:00 AM 66.2 °F 50.0 °F 56% 30.04 in - West 6.9 mph - N/A   Clear
7:30 AM 68.0 °F 51.8 °F 56% 30.06 in - West 8.1 mph - N/A   Clear
8:00 AM 69.8 °F 50.0 °F 49% 30.06 in - WNW 6.9 mph - N/A   Clear
9:00 AM 73.4 °F 46.4 °F 38% 30.06 in - WNW 11.5 mph - N/A   Clear
10:00 AM 77.0 °F 44.6 °F 32% 30.06 in - WNW 10.4 mph 23.0 mph N/A   Clear
10:30 AM 78.8 °F 44.6 °F 30% 30.06 in - NW 16.1 mph - N/A   Clear
11:00 AM 80.6 °F 42.8 °F 26% 30.04 in - NNW 17.3 mph - N/A   Clear
12:00 PM 82.4 °F 41.0 °F 23% 30.01 in - NNW 18.4 mph - N/A   Clear
12:30 PM 84.2 °F 41.0 °F 22% 30.01 in - NNW 17.3 mph - N/A   Clear
1:00 PM 84.2 °F 41.0 °F 22% 29.98 in - NW 18.4 mph - N/A   Clear
1:30 PM 84.2 °F 39.2 °F 20% 29.98 in - NNW 18.4 mph - N/A   Clear
2:00 PM 84.2 °F 39.2 °F 20% 29.98 in 5.6 mi NNW 17.3 mph - N/A   Unknown
3:00 PM 83 °F 39 °F 12% 29.97 in 6 mi NNW 18.4 mph - -  
3:00 PM 84.2 °F 39.2 °F 20% 29.95 in - NNW 18.4 mph - N/A   Clear
3:30 PM 84.2 °F 39.2 °F 20% 29.95 in - NW 15.0 mph - N/A   Clear
4:00 PM 82.4 °F 41.0 °F 23% 29.95 in - NNW 16.1 mph - N/A   Clear
4:30 PM 82.4 °F 41.0 °F 23% 29.95 in - NW 15.0 mph - N/A   Clear
5:00 PM 80.6 °F 41.0 °F 24% 29.95 in - NNW 15.0 mph - N/A   Clear
5:30 PM 78.8 °F 41.0 °F 26% 29.95 in - NW 12.7 mph - N/A   Clear
6:00 PM 78.8 °F 41.0 °F 26% 29.98 in - NW 11.5 mph - N/A   Clear
6:30 PM 77.0 °F 42.8 °F 29% 29.98 in - NW 9.2 mph - N/A   Clear
7:00 PM 75.2 °F 42.8 °F 31% 29.98 in - NW 10.4 mph - N/A   Clear
8:00 PM 75.2 °F 41.0 °F 29% 30.01 in - NW 11.5 mph - N/A   Clear
8:30 PM 73.4 °F 42.8 °F 33% 30.01 in - NW 9.2 mph - N/A   Clear
9:00 PM 74 °F 43 °F 22% 30.01 in 7 mi NW 8.1 mph - -  
9:00 PM 73.4 °F 42.8 °F 33% 30.01 in - NW 8.1 mph - N/A   Clear
9:30 PM 73.4 °F 44.6 °F 36% 30.01 in - NW 6.9 mph - N/A   Clear
10:00 PM 71.6 °F 46.4 °F 41% 30.01 in - WNW 4.6 mph - N/A   Clear
10:30 PM 71.6 °F 48.2 °F 43% 30.01 in - NW 5.8 mph - N/A   Clear
11:00 PM 71.6 °F 50.0 °F 46% 29.98 in - NW 5.8 mph - N/A   Clear
11:30 PM 71.6 °F 51.8 °F 50% 29.98 in - NW 4.6 mph - N/A   Clear